This demonstration page uses our WeatherBlox Daily Observations layout. Learn more.

Left ArrowRight Arrow

Hourly Observations for January 15, 2020

Temp ( °F °C ) Dew Point ( °F °C ) Humidity (%) Winds ( mph kmh ) Pressure ( in mb ) Visibility ( mi km ) Precip ( " mm )
12:53 am 00:53 Cloudy -13 -25 -19 -28.3 74 74 ENE 13 20 30.38 1029 10 16 0.00 0.00
1:53 am 01:53 Cloudy -13 -25 -19 -28.3 74 74 E 10 17 30.40 1029 9 14 0.00 0.00
2:53 am 02:53 Cloudy -13 -25 -19 -28.3 74 74 ENE 10 17 30.43 1030 10 16 0.00 0.00
3:15 am 03:15 Cloudy -12 -24.4 -18 -27.8 73 73 ENE 9 15 30.59 1036 10 16 0.00 0.00
3:53 am 03:53 Cloudy -13 -25 -19 -28.3 74 74 ENE 9 15 30.45 1031 10 16 0.00 0.00
4:53 am 04:53 Cloudy -14 -25.6 -20 -28.9 74 74 ENE 6 9 30.46 1032 10 16 0.00 0.00
5:31 am 05:31 Mostly Clear -16 -26.7 -21 -29.4 78 78 Calm 30.66 1038 10 16 0.00 0.00
5:53 am 05:53 Clear -17 -27.2 -22 -30 77 77 Calm 30.50 1033 10 16 0.00 0.00
6:53 am 06:53 Clear -26 -32.2 -31 -35 76 76 SW 3 6 30.54 1034 10 16 0.00 0.00
7:53 am 07:53 Clear -26 -32.2 -32 -35.6 72 72 Calm 30.56 1035 10 16 0.00 0.00
8:53 am 08:53 Mostly Sunny -22 -30 -28 -33.3 73 73 Calm 30.56 1035 10 16 0.00 0.00
9:53 am 09:53 Sunny with Mist and Fog -17 -27.2 -21 -29.4 82 82 Calm 30.56 1035 3 4 0.00 0.00
10:00 am 10:00 Hazy -14 -25.6 -21 -29.4 71 71 Calm 30.71 1040 5 8 0.00 0.00
10:53 am 10:53 Sunny -13 -25 -20 -28.9 70 70 E 8 13 30.55 1035 10 16 0.00 0.00
11:53 am 11:53 Sunny -13 -25 -20 -28.9 70 70 NE 9 15 30.52 1034 10 16 0.00 0.00
12:53 pm 12:53 Sunny -9 -22.8 -17 -27.2 67 67 ENE 14 22 30.50 1033 10 16 0.00 0.00
1:53 pm 13:53 Sunny -9 -22.8 -16 -26.7 71 71 ENE 16 26 30.48 1032 10 16 0.00 0.00
2:53 pm 14:53 Sunny -8 -22.2 -15 -26.1 71 71 ENE 18 30 30.47 1032 10 16 0.00 0.00
3:53 pm 15:53 Sunny -9 -22.8 -15 -26.1 75 75 ENE 20 31 30.47 1032 10 16 0.00 0.00
4:53 pm 16:53 Clear -10 -23.3 -16 -26.7 74 74 ENE 22 35 30.47 1032 10 16 0.00 0.00
5:53 pm 17:53 Clear -12 -24.4 -18 -27.8 73 73 ENE 22 35 30.48 1032 10 16 0.00 0.00
6:16 pm 18:16 Partly Cloudy -12 -24.4 -18 -27.8 73 73 ENE 18 30 30.62 1037 10 16 0.00 0.00
6:28 pm 18:28 Mostly Cloudy -12 -24.4 -18 -27.8 73 73 ENE 16 26 30.63 1037 9 14 0.00 0.00
6:53 pm 18:53 Cloudy with Haze -12 -24.4 -18 -27.8 73 73 ENE 18 30 30.51 1033 6 10 0.00 0.00
7:53 pm 19:53 Cloudy with Haze -13 -25 -19 -28.3 74 74 ENE 20 31 30.50 1033 3 5 0.00 0.00
8:11 pm 20:11 Cloudy with Haze -14 -25.6 -19 -28.3 78 78 ENE 20 31 30.63 1037 3 5 0.00 0.00
8:46 pm 20:46 Cloudy with Haze -15 -26 -20 -29 76 76 ENE 14 22 30.64 1038 3 4 0.00 0.00
8:53 pm 20:53 Cloudy with Haze -14 -25.6 -20 -28.9 74 74 ENE 16 26 30.49 1033 3 4 0.00 0.00
9:11 pm 21:11 Cloudy with Haze -14 -25.6 -20 -28.9 74 74 ENE 17 28 30.63 1037 3 5 0.00 0.00
9:53 pm 21:53 Cloudy with Haze -14 -25.6 -19 -28.3 78 78 ENE 17 28 30.47 1032 3 5 0.00 0.00
10:13 pm 22:13 Cloudy with Haze -13 -25 -19 -28.3 74 74 ENE 16 26 30.61 1036 3 4 0.00 0.00
10:41 pm 22:41 Cloudy with Haze -13 -25 -19 -28.3 74 74 ENE 15 24 30.62 1037 3 4 0.00 0.00
10:53 pm 22:53 Cloudy with Haze -13 -25 -19 -28.3 74 74 ENE 15 24 30.46 1032 3 4 0.00 0.00
11:15 pm 23:15 Cloudy with Haze -13 -25 -18 -27.8 78 78 ENE 13 20 30.62 1037 3 4 0.00 0.00
11:53 pm 23:53 Cloudy with Haze -11 -23.9 -16 -26.7 78 78 ENE 15 24 30.44 1031 3 5 0.00 0.00

Powered by AerisWeather